WB9ZLM-8 Weather Reports


time (UTC)temp
C
wind
direction
speed
KPH
gust
KPH
rain 1hr
cm
rain 24hr
cm
rain mn
cm
humidity
%
barometer
mb
20260906131701 21 60 3.2 8.0 0.00 0.00 0.00 91 1021.2
20260906131600 21 60 3.2 8.0 0.00 0.00 0.00 91 1021.2
20260906130201 21 50 0.0 8.0 0.00 0.00 0.00 91 1021.2
20260906130100 21 50 0.0 8.0 0.00 0.00 0.00 91 1021.2
20260906124701 21 70 0.0 8.0 0.00 0.00 0.00 91 1021.1
20260906124600 21 70 0.0 8.0 0.00 0.00 0.00 91 1021.1
20260906123201 21 70 0.0 8.0 0.00 0.00 0.00 91 1020.8
20260906123100 21 70 0.0 8.0 0.00 0.00 0.00 91 1020.8
20260906121701 21 60 0.0 8.0 0.00 0.00 0.00 91 1020.4
20260906121600 21 60 0.0 8.0 0.00 0.00 0.00 91 1020.4
20260906120201 21 60 0.0 8.0 0.00 0.00 0.00 90 1020.2
20260906120100 21 60 0.0 8.0 0.00 0.00 0.00 90 1020.2
20260906114701 21 60 0.0 8.0 0.00 0.00 0.00 90 1019.9
20260906114600 21 60 0.0 8.0 0.00 0.00 0.00 90 1019.9
20260906113201 21 60 0.0 8.0 0.00 0.00 0.00 90 1019.6
20260906113100 21 60 0.0 8.0 0.00 0.00 0.00 90 1019.6
20260906111701 21 60 0.0 8.0 0.00 0.00 0.00 90 1019.4
20260906111600 21 60 0.0 8.0 0.00 0.00 0.00 90 1019.4
20260906110201 21 70 0.0 8.0 0.00 0.00 0.00 91 1019.3
20260906110100 21 70 0.0 8.0 0.00 0.00 0.00 91 1019.3
20260906104701 21 60 0.0 8.0 0.00 0.00 0.00 90 1019.3
20260906104600 21 60 0.0 8.0 0.00 0.00 0.00 90 1019.3
20260906103201 21 60 0.0 8.0 0.00 0.00 0.00 90 1019.2
20260906103100 21 60 0.0 8.0 0.00 0.00 0.00 90 1019.2
20260906101701 21 60 0.0 8.0 0.00 0.00 0.00 89 1018.9
20260906101600 21 60 0.0 8.0 0.00 0.00 0.00 89 1018.9
20260906100201 22 50 0.0 8.0 0.00 0.00 0.00 89 1018.8
20260906100100 22 50 0.0 8.0 0.00 0.00 0.00 89 1018.8
20260906094701 21 60 0.0 8.0 0.00 0.00 0.00 89 1018.9
20260906094600 21 60 0.0 8.0 0.00 0.00 0.00 89 1018.9
20260906093201 22 60 1.6 8.0 0.00 0.00 0.00 88 1018.9
20260906093100 22 60 1.6 8.0 0.00 0.00 0.00 88 1018.9
20260906091701 22 70 0.0 8.0 0.00 0.00 0.00 87 1018.9
20260906091600 22 70 0.0 8.0 0.00 0.00 0.00 87 1018.9
20260906090201 22 70 0.0 8.0 0.00 0.00 0.00 87 1018.9
20260906090100 22 70 0.0 8.0 0.00 0.00 0.00 87 1018.9
20260906084701 22 60 0.0 8.0 0.00 0.00 0.00 87 1018.8
20260906084600 22 60 0.0 8.0 0.00 0.00 0.00 87 1018.8
20260906083201 22 50 0.0 8.0 0.00 0.00 0.00 87 1018.9
20260906083100 22 50 0.0 8.0 0.00 0.00 0.00 87 1018.9
20260906081701 22 40 0.0 8.0 0.00 0.00 0.00 87 1019.1
20260906081600 22 40 0.0 8.0 0.00 0.00 0.00 87 1019.1
20260906080201 22 50 0.0 8.0 0.00 0.00 0.00 87 1019.2
20260906080100 22 50 0.0 8.0 0.00 0.00 0.00 87 1019.2
20260906074701 22 50 0.0 8.0 0.00 0.00 0.00 86 1019.2
20260906074600 22 50 0.0 8.0 0.00 0.00 0.00 86 1019.2
20260906073201 22 50 0.0 8.0 0.00 0.00 0.00 86 1019.3
20260906073100 22 50 0.0 8.0 0.00 0.00 0.00 86 1019.3
20260906071701 22 60 0.0 8.0 0.00 0.00 0.00 86 1019.2
20260906071600 22 60 0.0 8.0 0.00 0.00 0.00 86 1019.2
20260906070201 22 50 0.0 8.0 0.00 0.00 0.00 86 1019.4
20260906070100 22 50 0.0 8.0 0.00 0.00 0.00 86 1019.4
20260906064701 22 60 0.0 8.0 0.00 0.00 0.00 85 1019.3
20260906064600 22 60 0.0 8.0 0.00 0.00 0.00 85 1019.3
20260906063201 22 60 0.0 8.0 0.00 0.00 0.00 85 1019.4
20260906063100 22 60 0.0 8.0 0.00 0.00 0.00 85 1019.4
20260906061701 22 70 0.0 8.0 0.00 0.00 0.00 85 1019.5
20260906061600 22 70 0.0 8.0 0.00 0.00 0.00 85 1019.5
20260906060201 22 70 0.0 8.0 0.00 0.00 0.00 85 1019.5
20260906060100 22 70 0.0 8.0 0.00 0.00 0.00 85 1019.5
20260906054701 22 60 0.0 8.0 0.00 0.00 0.00 85 1019.3
20260906054600 22 60 0.0 8.0 0.00 0.00 0.00 85 1019.3
20260906053201 23 60 6.4 8.0 0.00 0.00 0.00 86 1019.2
20260906053100 23 60 6.4 8.0 0.00 0.00 0.00 86 1019.2
20260906051701 23 80 0.0 8.0 0.00 0.00 0.00 85 1019.1
20260906051600 23 80 0.0 8.0 0.00 0.00 0.00 85 1019.1
20260906050201 23 70 0.0 8.0 0.00 0.00 0.00 85 1019.0
20260906050100 23 70 0.0 8.0 0.00 0.00 0.00 85 1019.0
20260906044701 23 70 0.0 8.0 0.00 0.00 0.00 84 1018.8
20260906044600 23 70 0.0 8.0 0.00 0.00 0.00 84 1018.8
20260906043201 23 70 0.0 8.0 0.00 0.00 0.00 83 1018.2
20260906043100 23 70 0.0 8.0 0.00 0.00 0.00 83 1018.2
20260906041701 24 70 0.0 8.0 0.00 0.00 0.00 82 1016.1
20260906041600 24 70 0.0 8.0 0.00 0.00 0.00 82 1016.1
20260906040201 24 70 0.0 8.0 0.00 0.00 0.00 82 1016.1
20260906040100 24 70 0.0 8.0 0.00 0.00 0.00 82 1016.1
20260906034701 25 60 0.0 8.0 0.00 0.00 0.00 82 1016.1
20260906034600 25 60 0.0 8.0 0.00 0.00 0.00 82 1016.1
20260906033201 25 60 0.0 8.0 0.00 0.00 0.00 80 1016.1
20260906033100 25 60 0.0 8.0 0.00 0.00 0.00 80 1016.1
20260906031701 25 60 0.0 8.0 0.00 0.00 0.00 80 1016.1
20260906031600 25 60 0.0 8.0 0.00 0.00 0.00 80 1016.1
20260906030201 25 60 0.0 8.0 0.00 0.00 0.00 80 1016.1
20260906030100 25 60 0.0 8.0 0.00 0.00 0.00 80 1016.1
20260906024701 25 60 0.0 8.0 0.00 0.00 0.00 80 1016.1
20260906024600 25 60 0.0 8.0 0.00 0.00 0.00 80 1016.1
20260906023201 25 60 0.0 8.0 0.00 0.00 0.00 79 1016.1
20260906023100 25 60 0.0 8.0 0.00 0.00 0.00 79 1016.1
20260906021701 25 50 0.0 8.0 0.00 0.00 0.00 79 1016.1
20260906021600 25 50 0.0 8.0 0.00 0.00 0.00 79 1016.1
20260906020201 26 50 0.0 8.0 0.00 0.00 0.00 79 1016.1
20260906020100 26 50 0.0 8.0 0.00 0.00 0.00 79 1016.1
20260906014701 26 50 0.0 8.0 0.00 0.00 0.00 78 1016.1
20260906014600 26 50 0.0 8.0 0.00 0.00 0.00 78 1016.1
20260906013201 26 50 0.0 8.0 0.00 0.00 0.00 78 1016.1
20260906013100 26 50 0.0 8.0 0.00 0.00 0.00 78 1016.1
20260906011701 26 40 0.0 8.0 0.00 0.00 0.00 78 1016.1
20260906011600 26 40 0.0 8.0 0.00 0.00 0.00 78 1016.1
20260906010201 26 60 0.0 8.0 0.00 0.00 0.00 77 1016.1
20260906010100 26 60 0.0 8.0 0.00 0.00 0.00 77 1016.1
20260906004701 27 50 11.3 8.0 0.00 0.00 0.00 76 1016.1
20260906004600 27 50 11.3 8.0 0.00 0.00 0.00 76 1016.1
20260906003201 27 50 0.0 8.0 0.00 0.00 0.00 75 1016.1
20260906003100 27 50 0.0 8.0 0.00 0.00 0.00 75 1016.1
20260906001701 28 60 0.0 8.0 0.00 0.00 0.00 73 1016.1
20260906001600 28 60 0.0 8.0 0.00 0.00 0.00 73 1016.1
20260906000201 28 50 1.6 8.0 0.00 0.00 0.00 73 1016.1
20260906000100 28 50 1.6 8.0 0.00 0.00 0.00 73 1016.1
20260905234701 28 40 0.0 8.0 0.00 0.00 0.00 73 1016.1
20260905234600 28 40 0.0 8.0 0.00 0.00 0.00 73 1016.1
20260905233201 29 50 8.0 8.0 0.00 0.00 0.00 73 1016.1
20260905233100 29 50 8.0 8.0 0.00 0.00 0.00 73 1016.1
20260905231701 29 30 0.0 8.0 0.00 0.00 0.00 74 1016.1
20260905231600 29 30 0.0 8.0 0.00 0.00 0.00 74 1016.1
20260905230201 30 20 1.6 8.0 0.00 0.00 0.00 73 1016.1
20260905230100 30 20 1.6 8.0 0.00 0.00 0.00 73 1016.1
20260905224701 30 30 0.0 8.0 0.00 0.00 0.00 72 1016.1
20260905224600 30 30 0.0 8.0 0.00 0.00 0.00 72 1016.1
20260905220201 30 10 0.0 8.0 0.00 0.00 0.00 68 1016.1
20260905220100 30 10 0.0 8.0 0.00 0.00 0.00 68 1016.1
20260905203201 31 360 0.0 8.0 0.00 0.00 0.00 66 1016.1
20260905203100 31 360 0.0 8.0 0.00 0.00 0.00 66 1016.1
20260905201701 31 340 0.0 8.0 0.00 0.00 0.00 66 1016.1
20260905201600 31 340 0.0 8.0 0.00 0.00 0.00 66 1016.1
20260905200201 31 330 0.0 8.0 0.00 0.00 0.00 67 1016.2
20260905200100 31 330 0.0 8.0 0.00 0.00 0.00 67 1016.2
20260905194701 30 360 0.0 8.0 0.00 0.00 0.00 71 1016.2
20260905194600 30 360 0.0 8.0 0.00 0.00 0.00 71 1016.2
20260905193201 30 340 0.0 8.0 0.00 0.00 0.00 71 1016.3
20260905193100 30 340 0.0 8.0 0.00 0.00 0.00 71 1016.3
20260905191701 30 0 3.2 8.0 0.00 0.00 0.00 71 1016.3
20260905191600 30 0 3.2 8.0 0.00 0.00 0.00 71 1016.3
20260905190201 30 360 4.8 8.0 0.00 0.00 0.00 69 1016.4
20260905190100 30 360 4.8 8.0 0.00 0.00 0.00 69 1016.4
20260905184701 30 340 3.2 8.0 0.00 0.00 0.00 72 1016.6
20260905184600 30 340 3.2 8.0 0.00 0.00 0.00 72 1016.6
20260905183201 30 10 0.0 8.0 0.00 0.00 0.00 72 1016.6
20260905183100 30 10 0.0 8.0 0.00 0.00 0.00 72 1016.6
20260905181701 30 30 1.6 8.0 0.00 0.00 0.00 72 1016.8
20260905181600 30 30 1.6 8.0 0.00 0.00 0.00 72 1016.8
20260905180201 30 330 8.0 8.0 0.00 0.00 0.00 73 1016.8
20260905180100 30 330 8.0 8.0 0.00 0.00 0.00 73 1016.8
20260905174701 29 340 0.0 8.0 0.00 0.00 0.00 75 1016.9
20260905174600 29 340 0.0 8.0 0.00 0.00 0.00 75 1016.9
20260905173201 29 340 6.4 8.0 0.00 0.00 0.00 77 1017.0
20260905173100 29 340 6.4 8.0 0.00 0.00 0.00 77 1017.0
20260905171701 29 80 0.0 8.0 0.00 0.00 0.00 76 1017.1
20260905171600 29 80 0.0 8.0 0.00 0.00 0.00 76 1017.1
20260905170201 28 10 8.0 8.0 0.00 0.00 0.00 76 1017.2
20260905170100 28 10 8.0 8.0 0.00 0.00 0.00 76 1017.2
20260905164701 28 40 0.0 8.0 0.00 0.00 0.00 79 1017.2
20260905164600 28 40 0.0 8.0 0.00 0.00 0.00 79 1017.2
20260905163206 28 10 8.0 8.0 0.00 0.00 0.00 79 1017.3
20260905163100 28 10 8.0 8.0 0.00 0.00 0.00 79 1017.3
20260905161701 28 340 6.4 8.0 0.00 0.00 0.00 80 1017.2
20260905161600 28 340 6.4 8.0 0.00 0.00 0.00 80 1017.2
20260905160201 27 340 0.0 8.0 0.00 0.00 0.00 83 1017.2
20260905160100 27 340 0.0 8.0 0.00 0.00 0.00 83 1017.2
20260905154701 27 330 0.0 8.0 0.00 0.00 0.00 84 1017.1
20260905154600 27 330 0.0 8.0 0.00 0.00 0.00 84 1017.1
20260905153201 27 20 3.2 8.0 0.00 0.00 0.00 83 1016.9
20260905153100 27 20 3.2 8.0 0.00 0.00 0.00 83 1016.9
20260905151701 27 330 0.0 8.0 0.00 0.00 0.00 83 1016.9
20260905151600 27 330 0.0 8.0 0.00 0.00 0.00 83 1016.9
20260905150201 26 330 4.8 8.0 0.00 0.00 0.00 85 1016.8
20260905150100 26 330 4.8 8.0 0.00 0.00 0.00 85 1016.8
20260905144701 26 330 0.0 8.0 0.00 0.00 0.00 84 1016.8
20260905144600 26 330 0.0 8.0 0.00 0.00 0.00 84 1016.8
20260905143201 26 340 0.0 8.0 0.00 0.00 0.00 86 1016.6
20260905143100 26 340 0.0 8.0 0.00 0.00 0.00 86 1016.6
20260905141701 25 0 0.0 8.0 0.00 0.00 0.00 89 1016.6
20260905141600 25 0 0.0 8.0 0.00 0.00 0.00 89 1016.6
20260905140201 25 260 0.0 8.0 0.00 0.00 0.00 89 1016.5
20260905140100 25 260 0.0 8.0 0.00 0.00 0.00 89 1016.5
20260905134701 25 280 4.8 8.0 0.00 0.00 0.00 90 1016.4
20260905134600 25 280 4.8 8.0 0.00 0.00 0.00 90 1016.4
20260905133201 25 280 0.0 8.0 0.00 0.00 0.00 90 1016.3
20260905133100 25 280 0.0 8.0 0.00 0.00 0.00 90 1016.3